N1JFY Weather Reports


Display with metric or nautical units.
time (UTC)temp
F
wind
direction
speed
MPH
gust
MPH
rain 1hr
in
rain 24hr
in
rain mn
in
humidity
%
barometer
mb
20260505041555 40 213 0.0 0.0 0.00 0.01 0.00 90 1005.9
20260505040049 40 214 0.0 0.0 0.00 0.01 0.00 88 1006.1
20260505034548 41 214 0.0 0.0 0.00 0.01 0.01 87 1006.0
20260505033048 42 215 0.0 0.0 0.00 0.01 0.01 86 1006.0
20260505031554 43 217 0.0 0.0 0.00 0.01 0.01 86 1006.1
20260505030047 44 210 0.0 0.0 0.00 0.01 0.01 85 1006.2
20260505024552 43 228 0.0 0.0 0.00 0.01 0.01 87 1006.2
20260505023046 42 187 0.0 0.0 0.00 0.01 0.01 87 1006.1
20260505021549 42 182 0.0 0.0 0.00 0.01 0.01 86 1006.0
20260505020043 43 182 0.0 0.0 0.00 0.01 0.01 84 1005.9
20260505014543 44 181 0.0 0.0 0.00 0.01 0.01 84 1005.9
20260505013042 44 193 0.0 0.0 0.00 0.01 0.01 83 1005.9
20260505011539 44 195 0.0 0.0 0.00 0.01 0.01 81 1005.7
20260505010039 45 194 0.0 0.0 0.00 0.01 0.01 81 1005.5
20260505004537 46 207 0.0 0.0 0.00 0.01 0.01 79 1005.5
20260505003036 46 215 1.0 7.0 0.00 0.01 0.01 78 1005.1
20260505001535 47 200 2.0 9.0 0.00 0.01 0.01 76 1004.9
20260505000036 47 223 3.0 11.0 0.00 0.01 0.01 75 1004.5
20260504234533 47 286 3.0 10.0 0.00 0.02 0.01 74 1004.4
20260504233029 47 259 5.0 11.0 0.00 0.02 0.01 74 1004.2
20260504231528 47 360 8.0 12.0 0.00 0.02 0.01 73 1003.8
20260504230028 47 249 8.0 16.0 0.00 0.02 0.01 72 1003.7
20260504224527 48 284 7.0 15.0 0.00 0.02 0.01 71 1003.7
20260504223027 48 232 7.0 22.0 0.00 0.02 0.01 71 1003.6
20260504221526 48 266 11.0 18.0 0.00 0.02 0.01 71 1003.4
20260504220026 48 267 6.0 13.0 0.00 0.02 0.01 73 1003.2
20260504214526 48 246 6.0 16.0 0.00 0.03 0.01 73 1003.2
20260504213025 48 235 8.0 15.0 0.00 0.03 0.01 72 1003.1
20260504211524 47 237 6.0 16.0 0.00 0.03 0.01 72 1003.1
20260504210032 47 246 10.0 17.0 0.00 0.03 0.01 73 1002.8
20260504204532 47 211 4.0 14.0 0.00 0.05 0.01 75 1002.7
20260504203034 47 269 8.0 13.0 0.00 0.05 0.01 73 1002.7
20260504201523 47 360 1.0 13.0 0.00 0.05 0.01 75 1002.6
20260504200022 47 268 7.0 15.0 0.00 0.05 0.01 76 1002.6
20260504194524 47 210 7.0 15.0 0.00 0.09 0.01 74 1002.6
20260504193022 47 267 10.0 17.0 0.01 0.09 0.01 74 1002.6
20260504191524 48 249 11.0 19.0 0.01 0.09 0.01 75 1002.5
20260504190019 47 228 3.0 9.0 0.01 0.09 0.01 79 1002.6
20260504184519 46 220 3.0 11.0 0.01 0.14 0.01 78 1002.8
20260504183020 47 242 8.0 13.0 0.00 0.13 0.00 73 1002.7
20260504181518 47 263 7.0 15.0 0.00 0.13 0.00 75 1002.9
20260504180017 47 207 7.0 17.0 0.00 0.13 0.00 73 1002.8
20260504174517 48 225 7.0 18.0 0.00 0.16 0.00 70 1002.8
20260504173016 50 245 6.0 18.0 0.00 0.16 0.00 64 1002.7
20260504171514 51 215 10.0 21.0 0.00 0.16 0.00 56 1002.4
20260504081502 34 260 9.0 20.0 0.00 0.55 0.00 78 1002.6
20260504044534 38 360 10.0 20.0 0.00 0.55 0.00 81 1001.7
20260504043031 38 360 11.0 20.0 0.00 0.55 0.00 82 1001.7